Three Rivers, MI

7:50 PM EDT on August 22, 2017 (GMT -0400)
Three Rivers Municipal-Haines

Weather History for KHAI - October, 2013

Change the Weather History Date:

Saturday, October 12, 2013

  Actual Average Record
Temperature  
Mean Temperature 61 °F -  
Max Temperature 78 °F 63 °F 81 °F (1962)
Min Temperature 44 °F 40 °F 24 °F (1957)
Degree Days  
Heating Degree Days 4    
Growing Degree Days 11 (Base 50)    
Moisture  
Dew Point 51 °F    
Average Humidity 70    
Maximum Humidity 95    
Minimum Humidity 35    
Precipitation  
Precipitation 0.00 in - - ()
Sea Level Pressure  
Sea Level Pressure 30.06 in    
Wind  
Wind Speed 3 mph (SSW)    
Max Wind Speed 16 mph    
Max Gust Speed 21 mph    
Visibility 8 miles    
Events Rain    
Averages and records for this station are not official NWS values.
T = Trace of Precipitation, MM = Missing Value Source: NWS Daily Summary

Daily Weather History Graph

Daily Weather History Graph

Search for Another Location

Airport or City:

Trip Planner

Search our weather history database for the weather conditions in past years. The results will help you decide how hot, cold, wet, or windy it might be!

Date:

Astronomy

Oct. 12, 2013 Rise Set
Actual Time 7:51 AM EDT 7:05 PM EDT
Civil Twilight 7:23 AM EDT 7:33 PM EDT
Nautical Twilight 6:51 AM EDT 8:05 PM EDT
Astronomical Twilight 6:18 AM EDT 8:37 PM EDT
Moon 3:19 PM EDT (10/12) 12:48 AM EDT (10/12)
Length of Visible Light 12h 09m
Length of Day
11h 13m
First Quarter, 58% of the Moon is Illuminated
Oct 12
First Quarter
Oct 18
Full
Oct 26
Last Quarter
Nov 3
New
Nov 10
First Quarter

Hourly Weather History & Observations

Time (EDT) Temp. Windchill Dew Point Humidity Pressure Visibility Wind Dir Wind Speed Gust Speed Precip Events Conditions
12:15 AM 57.9 °F - 50.9 °F 77% 30.06 in 10.0 mi Calm Calm - N/A   Clear
12:34 AM 56.8 °F - 50.2 °F 78% 30.06 in 10.0 mi Calm Calm - N/A   Clear
12:54 AM 55.8 °F - 48.6 °F 77% 30.06 in 10.0 mi East 3.5 mph - N/A   Clear
1:14 AM 56.3 °F - 47.5 °F 72% 30.06 in 10.0 mi Calm Calm - N/A   Clear
1:34 AM 52.7 °F - 46.4 °F 79% 30.06 in 10.0 mi Calm Calm - N/A   Clear
1:55 AM 52.5 °F - 46.9 °F 81% 30.06 in 10.0 mi Calm Calm - N/A   Clear
2:14 AM 51.8 °F - 47.3 °F 85% 30.06 in 10.0 mi Calm Calm - N/A   Clear
2:35 AM 51.3 °F - 46.6 °F 84% 30.07 in 10.0 mi Calm Calm - N/A   Clear
2:55 AM 49.5 °F - 46.0 °F 88% 30.07 in 10.0 mi Calm Calm - N/A   Clear
3:14 AM 48.7 °F - 46.2 °F 91% 30.07 in 7.0 mi West 3.5 mph - N/A   Clear
3:35 AM 49.5 °F - 47.3 °F 92% 30.07 in 7.0 mi Calm Calm - N/A   Clear
3:55 AM 48.2 °F - 45.9 °F 92% 30.07 in 10.0 mi Calm Calm - N/A   Clear
4:14 AM 47.7 °F - 45.5 °F 92% 30.07 in 10.0 mi Calm Calm - N/A   Clear
4:35 AM 47.8 °F - 45.7 °F 92% 30.07 in 10.0 mi Calm Calm - N/A   Clear
4:55 AM 46.8 °F - 44.4 °F 92% 30.07 in 7.0 mi Calm Calm - N/A   Clear
5:14 AM 47.5 °F - 45.1 °F 92% 30.07 in 10.0 mi Calm Calm - N/A   Clear
5:35 AM 46.8 °F - 44.4 °F 92% 30.07 in 10.0 mi Calm Calm - N/A   Clear
5:54 AM 45.1 °F - 42.6 °F 91% 30.07 in 7.0 mi Calm Calm - N/A   Clear
6:15 AM 46.4 °F - 44.4 °F 93% 30.07 in 7.0 mi Calm Calm - N/A   Clear
6:34 AM 45.7 °F - 43.5 °F 92% 30.07 in 10.0 mi Calm Calm - N/A   Clear
6:54 AM 46.4 °F - 44.6 °F 93% 30.07 in 5.0 mi Calm Calm - N/A   Clear
7:15 AM 45.5 °F - 43.7 °F 93% 30.07 in 10.0 mi Calm Calm - N/A   Clear
7:34 AM 44.4 °F 42.9 °F 42.4 °F 93% 30.07 in 1.2 mi WNW 3.5 mph - N/A   Mist
7:54 AM 45.5 °F - 44.1 °F 95% 30.07 in 2.0 mi Calm Calm - N/A   Clear
8:14 AM 46.8 °F - 45.3 °F 95% 30.07 in 1.0 mi Calm Calm - N/A   Mist
8:34 AM 46.2 °F - 44.6 °F 94% 30.08 in 3.0 mi Calm Calm - N/A   Clear
8:55 AM 50.4 °F - 48.9 °F 95% 30.08 in 2.5 mi Calm Calm - N/A   Clear
9:14 AM 53.6 °F - 52.0 °F 94% 30.08 in 4.0 mi Calm Calm - N/A   Clear
9:34 AM 55.9 °F - 53.6 °F 92% 30.08 in 7.0 mi Calm Calm - N/A   Clear
9:55 AM 58.8 °F - 53.8 °F 83% 30.09 in 10.0 mi Calm Calm - N/A   Clear
10:14 AM 60.6 °F - 54.0 °F 79% 30.09 in 10.0 mi South 3.5 mph - N/A   Clear
10:35 AM 63.0 °F - 54.3 °F 73% 30.09 in 10.0 mi SSW 3.5 mph - N/A   Clear
10:55 AM 65.1 °F - 54.9 °F 69% 30.08 in 10.0 mi South 3.5 mph - N/A   Clear
11:14 AM 67.5 °F - 54.9 °F 64% 30.08 in 10.0 mi SE 4.6 mph - N/A   Clear
11:35 AM 69.8 °F - 54.5 °F 58% 30.07 in 10.0 mi SSE 5.8 mph - N/A   Clear
11:55 AM 71.8 °F - 54.0 °F 53% 30.07 in 10.0 mi South 5.8 mph - N/A   Clear
12:14 PM 72.7 °F - 53.8 °F 51% 30.06 in 10.0 mi SSE 6.9 mph - N/A   Clear
12:35 PM 73.9 °F - 52.9 °F 48% 30.06 in 10.0 mi South 10.4 mph - N/A   Clear
12:54 PM 75.2 °F - 52.0 °F 44% 30.06 in 10.0 mi South 9.2 mph - N/A   Clear
1:15 PM 76.3 °F - 52.2 °F 43% 30.05 in 10.0 mi SSW 12.7 mph - N/A   Clear
1:35 PM 77.0 °F - 51.4 °F 41% 30.05 in 10.0 mi South 11.5 mph 17.3 mph N/A   Clear
1:54 PM 77.5 °F - 51.1 °F 40% 30.04 in 10.0 mi South 12.7 mph 18.4 mph N/A   Clear
2:15 PM 78.1 °F - 50.5 °F 38% 30.04 in 10.0 mi SSW 12.7 mph 17.3 mph N/A   Clear
2:35 PM 78.1 °F - 50.9 °F 39% 30.03 in 10.0 mi SSW 11.5 mph - N/A   Clear
2:54 PM 77.9 °F - 49.8 °F 37% 30.03 in 10.0 mi South 10.4 mph 18.4 mph N/A   Clear
3:15 PM 78.8 °F - 49.6 °F 36% 30.02 in 10.0 mi South 16.1 mph 20.7 mph N/A   Clear
3:34 PM 76.8 °F - 49.3 °F 38% 30.02 in 10.0 mi South 10.4 mph 20.7 mph N/A   Clear
3:54 PM 76.5 °F - 49.6 °F 39% 30.02 in 10.0 mi South 10.4 mph - N/A   Clear
4:15 PM 78.3 °F - 49.5 °F 36% 30.02 in 10.0 mi South 10.4 mph - N/A   Clear
4:34 PM 78.8 °F - 49.8 °F 36% 30.02 in 10.0 mi SSW 11.5 mph - N/A   Clear
4:55 PM 77.5 °F - 48.2 °F 35% 30.02 in 10.0 mi SW 9.2 mph - N/A   Clear
5:15 PM 76.1 °F - 48.6 °F 38% 30.02 in 10.0 mi SSW 9.2 mph - N/A   Clear
5:34 PM 75.9 °F - 48.9 °F 38% 30.02 in 10.0 mi SSW 10.4 mph - N/A   Clear
5:55 PM 75.2 °F - 50.0 °F 41% 30.03 in 10.0 mi SSW 8.1 mph - N/A   Clear
6:15 PM 74.5 °F - 51.1 °F 44% 30.03 in 10.0 mi SW 4.6 mph - N/A   Clear
6:34 PM 73.0 °F - 53.2 °F 50% 30.03 in 10.0 mi SSW 3.5 mph - N/A   Scattered Clouds
6:55 PM 72.5 °F - 52.7 °F 50% 30.04 in 10.0 mi Calm Calm - N/A   Mostly Cloudy
7:15 PM 71.4 °F - 53.8 °F 54% 30.04 in 10.0 mi Calm Calm - N/A   Mostly Cloudy
7:34 PM 70.5 °F - 54.1 °F 56% 30.04 in 10.0 mi Calm Calm - N/A   Mostly Cloudy
7:55 PM 69.8 °F - 54.1 °F 57% 30.05 in 10.0 mi Calm Calm - N/A   Scattered Clouds
8:14 PM 68.0 °F - 54.9 °F 63% 30.05 in 10.0 mi South 3.5 mph - N/A   Scattered Clouds
8:34 PM 68.7 °F - 55.9 °F 64% 30.06 in 10.0 mi Calm Calm - N/A   Overcast
8:55 PM 68.9 °F - 55.6 °F 62% 30.07 in 10.0 mi West 4.6 mph - N/A   Overcast
9:14 PM 68.9 °F - 58.8 °F 70% 30.07 in 10.0 mi NW 8.1 mph - N/A   Overcast
9:34 PM 66.7 °F - 61.2 °F 82% 30.09 in 10.0 mi WNW 5.8 mph - N/A Rain Light Rain
9:55 PM 65.3 °F - 62.2 °F 90% 30.10 in 3.0 mi NW 5.8 mph - N/A Rain Rain
10:14 PM 65.3 °F - 62.8 °F 92% 30.10 in 4.0 mi Calm Calm - N/A   Overcast
10:35 PM 65.5 °F - 63.0 °F 92% 30.10 in 4.0 mi Calm Calm - N/A   Overcast
10:55 PM 64.6 °F - 62.6 °F 93% 30.11 in 3.0 mi Calm Calm - N/A   Overcast
11:14 PM 64.4 °F - 62.6 °F 94% 30.12 in 3.0 mi WNW 3.5 mph - N/A   Overcast
11:35 PM 64.0 °F - 61.9 °F 93% 30.12 in 4.0 mi Calm Calm - N/A   Overcast
11:55 PM 63.0 °F - 61.0 °F 93% 30.13 in 4.0 mi Calm Calm - N/A   Overcast